Location: Strohbehn Observatory
(42.4649°N, 93.8239°W)
Time: 12:27:00
(UTC-05:00)

SL-16 R/B - Visible Passes

Search period start: 22 July 2014 00:00
Search period end: 01 August 2014 00:00
Orbit: 843 x 846 km, 71.0° (Epoch: 22 July)

Date Brightness Start Highest point End Pass type
(mag) Time Alt. Az. Time Alt. Az. Time Alt. Az.
22 Jul 4.5 00:16:06 10° WNW 00:18:02 12° W 00:19:57 10° WSW visible
22 Jul 2.2 22:14:58 10° NNW 22:20:41 89° ENE 22:24:33 21° SSE visible
23 Jul 4.5 00:01:44 10° WNW 00:03:55 12° W 00:06:06 10° WSW visible
23 Jul 2.2 22:00:50 10° NNW 22:06:32 86° ENE 22:10:56 17° SSE visible
23 Jul 4.5 23:47:23 10° WNW 23:49:48 13° W 23:52:12 10° WSW visible
24 Jul 2.2 21:46:41 10° NNW 21:52:23 83° ENE 21:57:23 14° SSE visible
24 Jul 4.5 23:33:04 10° WNW 23:35:41 13° W 23:38:17 10° SW visible
25 Jul 2.2 21:32:32 10° NNW 21:38:14 81° ENE 21:43:52 10° SSE visible
25 Jul 4.5 23:18:45 10° WNW 23:21:33 14° W 23:24:21 10° SW visible
26 Jul 2.2 21:18:23 10° NNW 21:24:05 78° ENE 21:29:45 10° SSE visible
26 Jul 4.6 23:04:28 10° WNW 23:07:26 15° W 23:10:24 10° SW visible
27 Jul 2.3 21:04:15 10° NNW 21:09:56 76° ENE 21:15:35 10° SSE visible
27 Jul 4.6 22:50:11 10° WNW 22:53:19 15° W 22:56:26 10° SW visible
28 Jul 4.6 22:35:55 10° WNW 22:39:12 16° W 22:42:28 10° SW visible
29 Jul 4.6 22:21:40 10° WNW 22:25:04 17° W 22:28:28 10° SW visible
30 Jul 4.6 22:07:25 10° WNW 22:10:57 17° W 22:14:29 10° SW visible
31 Jul 4.6 21:53:10 10° WNW 21:56:49 18° W 22:00:28 10° SW visible
